Вернуться в каталог

SL-12 DEB

LostHEO
NORAD 41696·DEBRIS·🇷🇺 Russia

Запущен Mar 1, 2010 с Baikonur Cosmodrome

Loading…

Ближайшие Пролёты (ближайшие 24 часа)

TLE

УстаревшееSource: Space-Track

Эпоха: Jun 23, 2026, 08:36 UTC

1 41696U 10007N   26174.35901916  .00228048  00000-0  12697-1 0  9998
2 41696  63.5013 205.0248 5277081  23.7711 353.6892  5.23607850180122

Отслеживайте SL-12 DEB в реальном времени с AllMySat

Download on the App Store